SL-12 DEB, 44982

Orbit data source: Space-Track

SL-12 DEB, 44982 is space debris in HEO originally from a launch on Mon, 25 Dec 2006 UTC launched from the Tyuratam Missile And Space Complex (TTMTR). Debris objects in space refer to the collection of defunct objects orbiting the Earth. Examples of debris include non-operational satellites, rocket bodies, and fragments generated from explosions, collisions, or faulty payload assembly.

Loading next visibility...
Identifier
44982, 2006-062S
Orbit
HEO
Country
Flag of CISCIS
Related business
Manufacturer
RKKE
Mission
Spacecraft
Bus & Motor
Unknown
Mass
Unknown
Launch date (UTC)
2006-12-25 (19 years ago)
Launch vehicle
Unknown
Launch site
Tyuratam Missile And Space Complex (TTMTR)
Object type
Payload
Rocket body
Debris
Shape & HBR
Unknown shape, 0.6 m
Radar Cross Section
Medium (>0.1 m² and <1 m²)

Expand to show TLE details & history
Last TLE update: 17 hours ago

TLE from 17 hours ago
0 SL-12 DEB
1 44982U 06062S   25353.28417854  .00000215  00000-0  26625-2 0  9999
2 44982  64.9738  66.1549 5552694 277.1894  25.9987  4.28221443 95858
Epoch: 2025-12-19T06:49Z
TLE epoch observation values (Epoch: 2025-12-19T06:49:13.025Z)
Latitude
-0.00001°
Longitude
-124.25905°
Altitude
3,999.639 km
Speed
7.207 km/s
True Right ascension
04h 24m 41s
True Declination
0° 00' 00"
Sunlit
Object was in full shadow at epoch
Visualization orbit readout
Latitude
Unknown
Longitude
Unknown
Altitude
Unknown
Speed
Unknown
Apparent Right ascension
Unknown
Apparent Declination
Unknown
Sunlit
N/A
Visualization observer readout
Local Sidereal Time
23:00:57
Azimuth
Unknown
Elevation
Unknown
Doppler factor
Unknown
Orbital elements
Apogee altitude
18,533.3 km
Perigee altitude
745.31 km
Semi-major axis
16,017.442 km
Eccentricity
0.55527
Inclination
64.9738°
RAAN
66.1549°
Arg. of periapsis
277.1894°
True anomaly
82.91757°
Mean anomaly
25.9987°
Eccentric anomaly
50.5736°
Mean motion
1.07066 °/min
Orbital period
336.24 mins
BSTAR
0.0026625
Loading maneuver chart data...
Computing Atmospheric mass density...
Loading historical data...
Loading historical data...
Loading historical data...
Loading historical data...
Loading historical data...
Loading historical data...
Loading historical data...

Documentation

Showing up to 5 results
|